Location: Haulchin
(50.3172°N, 3.4360°E)
Time: 10:27:42
(UTC+00:00)

Cosmos 2242 Rocket - Pass Details

Date: 23 May 2024
Orbit: 617 x 647 km, 82.5° (Epoch: 14 June)

Event Time Altitude Azimuth Distance (km) Brightness Sun altitude
Exits shadow 02:30:55 13° 208° (SSW) 1,809 5.3 -10.0°
Maximum altitude 02:34:45 53° 284° (WNW) 779 3.9 -9.6°
Drops below altitude 10° 02:39:11 10° 2° (N) 2,033 7.0 -9.1°
Sets 02:41:30 0° 7° (N) 2,952 8.1 -8.9°
